SWA3321 KMCO-KFLL

Flight info

Callsign SWA3321
Flight time 0h 46m
Altitude 27000
Route DDANY3 JIPOD CUUDA3
Aircraft B38M/M-SDE1FGHILORVWXY/HB1

Departure

Time 2026-05-03 22:34
Airport Orlando International Airport (KMCO)

Arrival

Time 2026-05-03 23:20
Airport Fort Lauderdale Hollywood International Airport (KFLL)
Time Latitude Longitude Altitude Speed Heading
2026-05-03 21:45 28.43545 -81.30385 105 ft 0 kts 98°
2026-05-03 22:14 28.43546 -81.30393 105 ft 2 kts 98°
2026-05-03 22:14 28.43548 -81.30405 105 ft 0 kts 98°
2026-05-03 22:14 28.43549 -81.30419 105 ft 2 kts 78°
2026-05-03 22:15 28.43545 -81.30430 105 ft 2 kts 63°
2026-05-03 22:15 28.43532 -81.30447 105 ft 2 kts 30°
2026-05-03 22:15 28.43523 -81.30453 105 ft 2 kts 14°
2026-05-03 22:15 28.43506 -81.30454 105 ft 0 kts 348°
2026-05-03 22:16 28.43500 -81.30452 105 ft 1 kts 342°
2026-05-03 22:16 28.43498 -81.30451 105 ft 0 kts 345°
2026-05-03 22:24 28.43504 -81.30453 105 ft 4 kts 347°
2026-05-03 22:24 28.43540 -81.30456 105 ft 11 kts
2026-05-03 22:25 28.43646 -81.30371 105 ft 13 kts 51°
2026-05-03 22:25 28.43702 -81.30301 105 ft 10 kts 42°
2026-05-03 22:25 28.43747 -81.30244 105 ft 8 kts 55°
2026-05-03 22:25 28.43783 -81.30177 105 ft 12 kts 60°
2026-05-03 22:26 28.43822 -81.30068 105 ft 17 kts 83°
2026-05-03 22:26 28.43774 -81.29933 105 ft 21 kts 140°
2026-05-03 22:26 28.43626 -81.29890 105 ft 22 kts 176°
2026-05-03 22:26 28.43475 -81.29879 105 ft 20 kts 158°
2026-05-03 22:27 28.43372 -81.29807 105 ft 16 kts 173°
2026-05-03 22:27 28.43255 -81.29803 105 ft 16 kts 180°
2026-05-03 22:27 28.43140 -81.29803 105 ft 17 kts 180°
2026-05-03 22:27 28.43029 -81.29800 105 ft 17 kts 179°
2026-05-03 22:28 28.42904 -81.29798 105 ft 17 kts 179°
2026-05-03 22:28 28.42779 -81.29797 105 ft 18 kts 180°
2026-05-03 22:28 28.42698 -81.29797 105 ft 18 kts 180°
2026-05-03 22:28 28.42541 -81.29798 105 ft 18 kts 179°
2026-05-03 22:29 28.42460 -81.29796 105 ft 19 kts 179°
2026-05-03 22:29 28.42285 -81.29794 105 ft 19 kts 180°
2026-05-03 22:29 28.42156 -81.29793 105 ft 20 kts 179°
2026-05-03 22:30 28.41874 -81.29791 105 ft 19 kts 181°
2026-05-03 22:30 28.41741 -81.29791 105 ft 18 kts 179°
2026-05-03 22:30 28.41611 -81.29788 105 ft 18 kts 179°
2026-05-03 22:30 28.41480 -81.29786 105 ft 18 kts 180°
2026-05-03 22:31 28.41468 -81.29786 105 ft 18 kts 180°
2026-05-03 22:31 28.41337 -81.29784 105 ft 18 kts 180°
2026-05-03 22:31 28.41211 -81.29784 105 ft 17 kts 179°
2026-05-03 22:32 28.41089 -81.29781 105 ft 17 kts 179°
2026-05-03 22:32 28.40971 -81.29780 105 ft 16 kts 179°
2026-05-03 22:32 28.40856 -81.29775 105 ft 15 kts 163°
2026-05-03 22:32 28.40819 -81.29668 104 ft 15 kts 89°
2026-05-03 22:33 28.40851 -81.29565 104 ft 13 kts 16°
2026-05-03 22:33 28.40909 -81.29560 104 ft 0 kts
2026-05-03 22:33 28.41016 -81.29561 105 ft 51 kts
2026-05-03 22:33 28.41644 -81.29567 105 ft 126 kts 359°
2026-05-03 22:34 28.42717 -81.29575 222 ft 172 kts
2026-05-03 22:34 28.43973 -81.29560 819 ft 192 kts
2026-05-03 22:34 28.45285 -81.29345 1415 ft 206 kts 27°
2026-05-03 22:34 28.46394 -81.28246 1964 ft 229 kts 55°
2026-05-03 22:35 28.47275 -81.26682 2501 ft 257 kts 58°
2026-05-03 22:35 28.48293 -81.24960 3100 ft 282 kts 55°
2026-05-03 22:35 28.49451 -81.23144 3692 ft 302 kts 55°
2026-05-03 22:35 28.50529 -81.21072 4291 ft 315 kts 66°
2026-05-03 22:36 28.51123 -81.18900 4841 ft 321 kts 77°
2026-05-03 22:36 28.51300 -81.16924 5312 ft 328 kts 93°
2026-05-03 22:36 28.50716 -81.13804 6050 ft 339 kts 106°
2026-05-03 22:36 28.50043 -81.11251 6650 ft 345 kts 107°
2026-05-03 22:37 28.49376 -81.08609 7251 ft 352 kts 106°
2026-05-03 22:37 28.48569 -81.05952 7861 ft 355 kts 115°
2026-05-03 22:37 28.47298 -81.03587 8453 ft 359 kts 134°
2026-05-03 22:37 28.45466 -81.01650 9058 ft 361 kts 145°
2026-05-03 22:38 28.43447 -80.99908 9663 ft 365 kts 147°
2026-05-03 22:38 28.41388 -80.98193 10269 ft 366 kts 147°
2026-05-03 22:38 28.39338 -80.96450 10876 ft 369 kts 147°
2026-05-03 22:38 28.37300 -80.94670 11491 ft 373 kts 146°
2026-05-03 22:39 28.35271 -80.92862 12096 ft 374 kts 146°
2026-05-03 22:39 28.33265 -80.91050 12733 ft 377 kts 146°
2026-05-03 22:39 28.31583 -80.89522 13238 ft 377 kts 146°
2026-05-03 22:39 28.29539 -80.87611 13761 ft 384 kts 143°
2026-05-03 22:40 28.27699 -80.85348 13960 ft 395 kts 129°
2026-05-03 22:40 28.26381 -80.82616 13991 ft 397 kts 117°
2026-05-03 22:40 28.25340 -80.79721 14228 ft 398 kts 114°
2026-05-03 22:40 28.24377 -80.76788 14786 ft 403 kts 114°
2026-05-03 22:41 28.23397 -80.73807 15386 ft 409 kts 114°
2026-05-03 22:41 28.22369 -80.70785 15988 ft 412 kts 115°
2026-05-03 22:41 28.21312 -80.67763 16587 ft 417 kts 116°
2026-05-03 22:41 28.20220 -80.64632 17201 ft 421 kts 115°
2026-05-03 22:42 28.19183 -80.61541 17798 ft 426 kts 115°
2026-05-03 22:42 28.17281 -80.55724 18834 ft 434 kts 115°
2026-05-03 22:42 28.15873 -80.51417 18970 ft 440 kts 114°
2026-05-03 22:43 28.15162 -80.49246 18974 ft 438 kts 115°
2026-05-03 22:43 28.14104 -80.46019 18978 ft 436 kts 115°
2026-05-03 22:43 28.13046 -80.42806 18981 ft 437 kts 115°
2026-05-03 22:43 28.11494 -80.38587 18987 ft 434 kts 121°
2026-05-03 22:44 28.10499 -80.36605 18986 ft 429 kts 128°
2026-05-03 22:44 28.08692 -80.33980 18982 ft 419 kts 140°
2026-05-03 22:44 28.06564 -80.31827 18978 ft 412 kts 150°
2026-05-03 22:44 28.04107 -80.30141 18975 ft 405 kts 161°
2026-05-03 22:45 28.00672 -80.28535 18982 ft 398 kts 167°
2026-05-03 22:45 27.98907 -80.27822 18978 ft 396 kts 168°
2026-05-03 22:45 27.96312 -80.26817 18971 ft 396 kts 168°
2026-05-03 22:45 27.92795 -80.25481 18969 ft 396 kts 168°
2026-05-03 22:46 27.91066 -80.24826 18971 ft 398 kts 168°
2026-05-03 22:46 27.88421 -80.23818 18976 ft 398 kts 168°
2026-05-03 22:46 27.84931 -80.22475 18972 ft 397 kts 168°
2026-05-03 22:46 27.83184 -80.21797 18966 ft 398 kts 168°
2026-05-03 22:47 27.80566 -80.20781 18977 ft 399 kts 168°
2026-05-03 22:47 27.77944 -80.19762 18971 ft 397 kts 168°
2026-05-03 22:47 27.75312 -80.18737 18970 ft 397 kts 168°
2026-05-03 22:47 27.72691 -80.17716 18971 ft 398 kts 167°
2026-05-03 22:48 27.70070 -80.16696 18970 ft 399 kts 168°
2026-05-03 22:48 27.67470 -80.15685 18969 ft 397 kts 168°
2026-05-03 22:48 27.64845 -80.14665 18969 ft 400 kts 168°
2026-05-03 22:48 27.62220 -80.13645 18966 ft 399 kts 167°
2026-05-03 22:49 27.59569 -80.12593 18967 ft 399 kts 167°
2026-05-03 22:49 27.56952 -80.11520 18972 ft 401 kts 166°
2026-05-03 22:49 27.54351 -80.10438 18969 ft 400 kts 166°
2026-05-03 22:49 27.51748 -80.09352 18965 ft 399 kts 166°
2026-05-03 22:50 27.48273 -80.07907 18965 ft 401 kts 166°
2026-05-03 22:50 27.46511 -80.07179 18962 ft 401 kts 166°
2026-05-03 22:50 27.43880 -80.06094 18966 ft 401 kts 166°
2026-05-03 22:50 27.40365 -80.04645 18967 ft 400 kts 166°
2026-05-03 22:51 27.38657 -80.03942 18964 ft 399 kts 167°
2026-05-03 22:51 27.36018 -80.02948 18960 ft 397 kts 169°
2026-05-03 22:51 27.32459 -80.01833 18966 ft 395 kts 172°
2026-05-03 22:51 27.29815 -80.01069 18964 ft 397 kts 172°
2026-05-03 22:52 27.28015 -80.00553 18963 ft 397 kts 172°
2026-05-03 22:52 27.25326 -79.99766 18959 ft 396 kts 171°
2026-05-03 22:52 27.22662 -79.98912 18943 ft 399 kts 169°
2026-05-03 22:52 27.20028 -79.97988 18664 ft 401 kts 168°
2026-05-03 22:53 27.17370 -79.97015 18090 ft 398 kts 168°
2026-05-03 22:53 27.14773 -79.96049 17615 ft 392 kts 167°
2026-05-03 22:53 27.12167 -79.95087 17157 ft 389 kts 168°
2026-05-03 22:53 27.09589 -79.94146 16700 ft 387 kts 167°
2026-05-03 22:54 27.07030 -79.93212 16241 ft 384 kts 167°
2026-05-03 22:54 27.04517 -79.92256 15787 ft 382 kts 166°
2026-05-03 22:54 27.02015 -79.91261 15325 ft 379 kts 165°
2026-05-03 22:54 26.99555 -79.90260 14963 ft 375 kts 165°
2026-05-03 22:55 26.97094 -79.89246 14915 ft 377 kts 164°
2026-05-03 22:55 26.94672 -79.88254 14910 ft 360 kts 165°
2026-05-03 22:55 26.92358 -79.87305 14906 ft 341 kts 165°
2026-05-03 22:55 26.90180 -79.86407 14895 ft 329 kts 165°
2026-05-03 22:56 26.88025 -79.85535 14892 ft 329 kts 166°
2026-05-03 22:56 26.85868 -79.84667 14894 ft 329 kts 166°
2026-05-03 22:56 26.83705 -79.83799 14891 ft 329 kts 165°
2026-05-03 22:56 26.81538 -79.82931 14893 ft 329 kts 166°
2026-05-03 22:57 26.78681 -79.81785 14886 ft 328 kts 165°
2026-05-03 22:57 26.77233 -79.81205 14886 ft 329 kts 166°
2026-05-03 22:57 26.74357 -79.80051 14889 ft 329 kts 166°
2026-05-03 22:57 26.72182 -79.79224 14890 ft 327 kts 169°
2026-05-03 22:58 26.70724 -79.78860 14889 ft 321 kts 178°
2026-05-03 22:58 26.68500 -79.78938 14889 ft 314 kts 197°
2026-05-03 22:58 26.66457 -79.79656 14891 ft 308 kts 204°
2026-05-03 22:58 26.64453 -79.80519 14889 ft 308 kts 205°
2026-05-03 22:59 26.62429 -79.81382 14887 ft 308 kts 205°
2026-05-03 22:59 26.60408 -79.82222 14882 ft 309 kts 205°
2026-05-03 22:59 26.58386 -79.83049 14880 ft 309 kts 205°
2026-05-03 22:59 26.56350 -79.83875 14881 ft 309 kts 204°
2026-05-03 23:00 26.54335 -79.84716 14877 ft 308 kts 206°
2026-05-03 23:00 26.52375 -79.85618 14873 ft 308 kts 207°
2026-05-03 23:00 26.50388 -79.86574 14863 ft 308 kts 207°
2026-05-03 23:00 26.48422 -79.87521 14862 ft 308 kts 207°
2026-05-03 23:01 26.46438 -79.88466 14862 ft 308 kts 207°
2026-05-03 23:01 26.44459 -79.89401 14862 ft 308 kts 207°
2026-05-03 23:01 26.42488 -79.90327 14857 ft 308 kts 207°
2026-05-03 23:01 26.39853 -79.91563 14850 ft 308 kts 207°
2026-05-03 23:02 26.38522 -79.92194 14850 ft 309 kts 208°
2026-05-03 23:02 26.36596 -79.93258 14847 ft 307 kts 212°
2026-05-03 23:02 26.34759 -79.94441 14845 ft 304 kts 215°
2026-05-03 23:02 26.32929 -79.95670 14843 ft 306 kts 214°
2026-05-03 23:03 26.31090 -79.96898 14840 ft 306 kts 214°
2026-05-03 23:03 26.29268 -79.98090 14838 ft 304 kts 214°
2026-05-03 23:03 26.27437 -79.99271 14769 ft 304 kts 213°
2026-05-03 23:03 26.25618 -80.00436 14340 ft 301 kts 213°
2026-05-03 23:04 26.23803 -80.01601 13541 ft 305 kts 213°
2026-05-03 23:04 26.21950 -80.02795 12609 ft 311 kts 213°
2026-05-03 23:04 26.20079 -80.04012 11676 ft 315 kts 216°
2026-05-03 23:04 26.18368 -80.05472 10724 ft 315 kts 228°
2026-05-03 23:05 26.16877 -80.08220 9443 ft 316 kts 251°
2026-05-03 23:05 26.16428 -80.09739 8807 ft 317 kts 253°
2026-05-03 23:05 26.15828 -80.12105 7833 ft 317 kts 255°
2026-05-03 23:05 26.15143 -80.15260 6545 ft 318 kts 263°
2026-05-03 23:06 26.15034 -80.16873 5903 ft 318 kts 268°
2026-05-03 23:06 26.15008 -80.19312 4940 ft 318 kts 271°
2026-05-03 23:06 26.15035 -80.21754 3975 ft 318 kts 271°
2026-05-03 23:06 26.15071 -80.24199 3087 ft 316 kts 271°
2026-05-03 23:07 26.15102 -80.26595 2545 ft 303 kts 272°
2026-05-03 23:07 26.15115 -80.28838 2449 ft 277 kts 272°
2026-05-03 23:07 26.15116 -80.30876 2729 ft 253 kts 271°
2026-05-03 23:07 26.15109 -80.32825 2872 ft 249 kts 271°
2026-05-03 23:08 26.15087 -80.34694 2839 ft 237 kts 270°
2026-05-03 23:08 26.15051 -80.36489 2835 ft 224 kts 271°
2026-05-03 23:08 26.15017 -80.38202 2841 ft 221 kts 271°
2026-05-03 23:08 26.14983 -80.39925 2842 ft 221 kts 271°
2026-05-03 23:09 26.14950 -80.41631 2842 ft 222 kts 270°
2026-05-03 23:09 26.14924 -80.43345 2844 ft 222 kts 270°
2026-05-03 23:09 26.14903 -80.45060 2844 ft 221 kts 271°
2026-05-03 23:09 26.14884 -80.46770 2841 ft 222 kts 271°
2026-05-03 23:10 26.14866 -80.48499 2844 ft 222 kts 270°
2026-05-03 23:10 26.14855 -80.50214 2843 ft 221 kts 271°
2026-05-03 23:10 26.14842 -80.51897 2844 ft 220 kts 271°
2026-05-03 23:10 26.14827 -80.53605 2843 ft 223 kts 271°
2026-05-03 23:11 26.14818 -80.55329 2844 ft 220 kts 271°
2026-05-03 23:11 26.14677 -80.56979 2827 ft 210 kts 252°
2026-05-03 23:11 26.13863 -80.58283 2848 ft 210 kts 217°
2026-05-03 23:11 26.12506 -80.58831 2856 ft 210 kts 182°
2026-05-03 23:12 26.11042 -80.58711 2857 ft 208 kts 173°
2026-05-03 23:12 26.09587 -80.58498 2837 ft 208 kts 173°
2026-05-03 23:12 26.08206 -80.58300 2819 ft 192 kts 173°
2026-05-03 23:12 26.06914 -80.58067 2830 ft 186 kts 161°
2026-05-03 23:13 26.05831 -80.57279 2837 ft 189 kts 131°
2026-05-03 23:13 26.05196 -80.55962 2829 ft 199 kts 98°
2026-05-03 23:13 26.05255 -80.54433 2840 ft 197 kts 78°
2026-05-03 23:13 26.05498 -80.52940 2839 ft 197 kts 79°
2026-05-03 23:14 26.05703 -80.51425 2836 ft 197 kts 81°
2026-05-03 23:14 26.05881 -80.49898 2837 ft 198 kts 81°
2026-05-03 23:14 26.06055 -80.48387 2835 ft 197 kts 81°
2026-05-03 23:14 26.06236 -80.46882 2834 ft 198 kts 81°
2026-05-03 23:15 26.06422 -80.45361 2835 ft 197 kts 81°
2026-05-03 23:15 26.06604 -80.43842 2835 ft 198 kts 81°
2026-05-03 23:15 26.06786 -80.42327 2837 ft 197 kts 81°
2026-05-03 23:15 26.06965 -80.40823 2837 ft 198 kts 81°
2026-05-03 23:16 26.07147 -80.39305 2837 ft 197 kts 81°
2026-05-03 23:16 26.07325 -80.37782 2838 ft 198 kts 81°
2026-05-03 23:16 26.07503 -80.36278 2836 ft 198 kts 81°
2026-05-03 23:16 26.07686 -80.34753 2834 ft 199 kts 81°
2026-05-03 23:17 26.07830 -80.33219 2834 ft 199 kts 88°
2026-05-03 23:17 26.07746 -80.31666 2835 ft 201 kts 93°
2026-05-03 23:17 26.07700 -80.30119 2832 ft 199 kts 88°
2026-05-03 23:17 26.07736 -80.28567 2685 ft 202 kts 86°
2026-05-03 23:18 26.07779 -80.26983 2221 ft 210 kts 88°
2026-05-03 23:18 26.07691 -80.25349 1722 ft 217 kts 92°
2026-05-03 23:18 26.07582 -80.23753 1510 ft 190 kts 90°
2026-05-03 23:18 26.07596 -80.22369 1336 ft 169 kts 83°
2026-05-03 23:19 26.07679 -80.21147 1109 ft 153 kts 84°
2026-05-03 23:19 26.07704 -80.19988 846 ft 148 kts 88°
2026-05-03 23:19 26.07697 -80.18845 604 ft 150 kts 87°
2026-05-03 23:19 26.07694 -80.17667 341 ft 151 kts 87°
2026-05-03 23:20 26.07692 -80.16137 20 ft 143 kts 88°
2026-05-03 23:20 26.07689 -80.15439 15 ft 126 kts 89°
2026-05-03 23:20 26.07685 -80.14619 10 ft 75 kts 91°
2026-05-03 23:20 26.07673 -80.14260 10 ft 24 kts 118°
2026-05-03 23:21 26.07627 -80.14229 10 ft 0 kts 181°
2026-05-03 23:22 26.07559 -80.14168 10 ft 0 kts 90°
2026-05-03 23:22 26.07559 -80.14158 10 ft 4 kts 90°
2026-05-03 23:22 26.07559 -80.14140 10 ft 0 kts 93°
2026-05-03 23:23 26.07558 -80.14128 10 ft 4 kts 93°
2026-05-03 23:23 26.07555 -80.14066 10 ft 10 kts 92°
2026-05-03 23:23 26.07554 -80.13989 10 ft 9 kts 90°
2026-05-03 23:23 26.07542 -80.13914 10 ft 9 kts 117°
2026-05-03 23:24 26.07518 -80.13847 10 ft 9 kts 97°
2026-05-03 23:24 26.07517 -80.13774 10 ft 9 kts 90°
2026-05-03 23:24 26.07488 -80.13726 10 ft 8 kts 161°
2026-05-03 23:24 26.07443 -80.13729 10 ft 10 kts 204°
2026-05-03 23:25 26.07381 -80.13771 10 ft 8 kts 240°
2026-05-03 23:25 26.07371 -80.13793 10 ft 0 kts 245°